This is the latest recevied weather packets stored in our database for station/object N2QKV-13. If no packets are shown the sender has not sent any weather packets the latest 10 day(s).
| Time | Temp. | Humidity | Pressure | Rain* | Wind** | Luminosity | Snow |
|---|---|---|---|---|---|---|---|
| 1778086804 | 18.89° C | 80% | 1009.5 hPa | 0 mm | - | - | - |
| 1778086503 | 18.89° C | 81% | 1009.5 hPa | 0 mm | - | - | - |
| 1778086204 | 18.89° C | 82% | 1009.5 hPa | 0 mm | - | - | - |
| 1778085904 | 18.33° C | 83% | 1009.6 hPa | 0 mm | - | - | - |
| 1778085604 | 18.33° C | 83% | 1009.8 hPa | 0 mm | - | - | - |
| 1778085304 | 18.33° C | 83% | 1009.8 hPa | 0 mm | - | - | - |
| 1778085003 | 18.33° C | 82% | 1009.9 hPa | 0 mm | - | - | - |
| 1778084704 | 18.33° C | 81% | 1009.9 hPa | 0 mm | - | - | - |
| 1778084404 | 18.33° C | 81% | 1010 hPa | 0 mm | - | - | - |
| 1778084104 | 18.33° C | 81% | 1009.9 hPa | 0 mm | - | - | - |
| 1778083803 | 18.33° C | 79% | 1009.9 hPa | 0 mm | - | - | - |
| 1778083504 | 18.89° C | 78% | 1009.8 hPa | 0 mm | - | - | - |
| 1778083204 | 18.89° C | 77% | 1009.8 hPa | 0 mm | - | - | - |
| 1778082904 | 19.44° C | 76% | 1009.9 hPa | 0 mm | - | - | - |
| 1778082604 | 20° C | 75% | 1009.8 hPa | 0 mm | - | - | - |
| 1778082304 | 20° C | 75% | 1010 hPa | 0 mm | - | - | - |
| 1778082004 | 20° C | 74% | 1009.8 hPa | 0 mm | - | - | - |
| 1778081704 | 20° C | 75% | 1009.8 hPa | 0 mm | - | - | - |
| 1778081404 | 19.44° C | 76% | 1009.8 hPa | 0 mm | - | - | - |
| 1778081103 | 19.44° C | 76% | 1009.9 hPa | 0 mm | - | - | - |
| 1778080804 | 19.44° C | 76% | 1009.8 hPa | 0 mm | - | - | - |
| 1778080504 | 20° C | 75% | 1009.9 hPa | 0 mm | - | - | - |
| 1778080204 | 20° C | 73% | 1010.1 hPa | 0 mm | - | - | - |
| 1778079904 | 20.56° C | 72% | 1010 hPa | 0 mm | - | - | - |
| 1778079603 | 21.11° C | 71% | 1009.9 hPa | 0 mm | - | - | - |
* Rain latest hour (hover to see other rain measurements)
** Current wind speed in m/s (hover to see current wind gust speed)